Вернуться в каталог

STARLINK-5730

АктивенСвязьVLEO
NORAD 55611·PAYLOAD·🇺🇸 United States

Запущен Feb 12, 2023 с Cape Canaveral Space Force Station

Loading…

Ближайшие Пролёты (ближайшие 24 часа)

TLE

СвежийSource: CelesTrak SupGP

Эпоха: Sep 14, 2026, 21:32 UTC

1 55611C 23020AU  26257.89770833 -.00009294  00000+0 -33643-3 0  2576
2 55611  43.0034   6.0289 0002176 272.9820  30.6999 15.27602291    17

Отслеживайте STARLINK-5730 в реальном времени с AllMySat

Download on the App Store